Wetterdaten: Samstag, 06.06.2015
Datum Zeit Auen-Temp. Temp gefhlt Luftfeuchte Luftdruck Regen Wind Richtung Richtung Taupunkt Windben
06.06.2015 00:00 16,5 C 16,3 C 80 % 1020,1 hPa 0,0 mm 0,0 km/h (0 Bft) S-SO 157 13,0 C 0,0 km/h (0 Bft)
06.06.2015 00:05 16,6 C 16,4 C 80 % 1020,1 hPa 0,0 mm 0,0 km/h (0 Bft) O-NO 67 13,1 C 2,6 km/h (1 Bft)
06.06.2015 00:10 16,2 C 16,1 C 80 % 1020,1 hPa 0,0 mm 0,0 km/h (0 Bft) O-SO 112 12,7 C 0,0 km/h (0 Bft)
06.06.2015 00:15 16,2 C 16,1 C 80 % 1020,1 hPa 0,0 mm 0,0 km/h (0 Bft) S-SO 157 12,7 C 0,0 km/h (0 Bft)
06.06.2015 00:20 16,0 C 15,9 C 81 % 1020,1 hPa 0,0 mm 0,0 km/h (0 Bft) O-NO 67 12,7 C 0,0 km/h (0 Bft)
06.06.2015 00:25 16,0 C 15,9 C 81 % 1020,1 hPa 0,0 mm 0,0 km/h (0 Bft) O 90 12,7 C 0,0 km/h (0 Bft)
06.06.2015 00:30 15,9 C 15,8 C 82 % 1020,1 hPa 0,0 mm 0,0 km/h (0 Bft) NO 45 12,8 C 0,0 km/h (0 Bft)
06.06.2015 00:35 15,9 C 15,8 C 83 % 1020,1 hPa 0,0 mm 0,0 km/h (0 Bft) SO 135 13,0 C 0,0 km/h (0 Bft)
06.06.2015 00:40 15,8 C 15,7 C 83 % 1020,1 hPa 0,0 mm 0,0 km/h (0 Bft) O 90 12,9 C 0,0 km/h (0 Bft)
06.06.2015 00:45 16,1 C 15,9 C 84 % 1020,1 hPa 0,0 mm 0,0 km/h (0 Bft) O-NO 67 13,4 C 0,0 km/h (0 Bft)
06.06.2015 00:50 15,9 C 15,7 C 84 % 1020,1 hPa 0,0 mm 0,0 km/h (0 Bft) N-NO 22 13,2 C 0,0 km/h (0 Bft)
06.06.2015 00:55 15,8 C 15,7 C 84 % 1020,1 hPa 0,0 mm 0,0 km/h (0 Bft) N-NO 22 13,1 C 0,0 km/h (0 Bft)
06.06.2015 01:00 15,8 C 15,6 C 84 % 1020,2 hPa 0,0 mm 0,0 km/h (0 Bft) W-NW 292 13,1 C 0,0 km/h (0 Bft)
06.06.2015 01:05 15,7 C 15,5 C 84 % 1020,2 hPa 0,0 mm 0,0 km/h (0 Bft) W-NW 292 13,0 C 0,0 km/h (0 Bft)
06.06.2015 01:10 15,8 C 15,6 C 84 % 1020,2 hPa 0,0 mm 0,0 km/h (0 Bft) SO 135 13,1 C 0,0 km/h (0 Bft)
06.06.2015 01:15 16,3 C 16,0 C 84 % 1020,2 hPa 0,0 mm 0,0 km/h (0 Bft) O-SO 112 13,6 C 0,0 km/h (0 Bft)
06.06.2015 01:20 16,0 C 15,9 C 84 % 1020,0 hPa 0,0 mm 0,3 km/h (0 Bft) S 180 13,3 C 2,6 km/h (1 Bft)
06.06.2015 01:25 16,2 C 16,0 C 84 % 1020,0 hPa 0,0 mm 0,5 km/h (0 Bft) SO 135 13,5 C 4,1 km/h (1 Bft)
06.06.2015 01:30 16,1 C 16,0 C 84 % 1020,0 hPa 0,0 mm 0,3 km/h (0 Bft) NO 45 13,4 C 0,0 km/h (0 Bft)
06.06.2015 01:35 15,9 C 15,8 C 84 % 1020,0 hPa 0,0 mm 0,0 km/h (0 Bft) NO 45 13,2 C 0,0 km/h (0 Bft)
06.06.2015 01:40 16,0 C 15,8 C 84 % 1020,2 hPa 0,0 mm 0,5 km/h (0 Bft) S-SO 157 13,3 C 0,0 km/h (0 Bft)
06.06.2015 01:45 16,0 C 15,8 C 84 % 1020,2 hPa 0,0 mm 0,5 km/h (0 Bft) S-SO 157 13,3 C 6,2 km/h (2 Bft)
06.06.2015 01:50 16,2 C 16,1 C 84 % 1020,2 hPa 0,0 mm 0,5 km/h (0 Bft) S-SW 202 13,5 C 0,0 km/h (0 Bft)
06.06.2015 01:55 16,3 C 16,2 C 84 % 1020,2 hPa 0,0 mm 1,0 km/h (0 Bft) S-SW 202 13,6 C 0,0 km/h (0 Bft)
06.06.2015 02:00 16,4 C 16,2 C 83 % 1020,0 hPa 0,0 mm 0,8 km/h (0 Bft) SW 225 13,5 C 7,0 km/h (2 Bft)
06.06.2015 02:05 16,8 C 16,6 C 84 % 1020,0 hPa 0,0 mm 4,7 km/h (1 Bft) SW 225 14,1 C 12,2 km/h (2 Bft)
06.06.2015 02:10 16,8 C 16,7 C 83 % 1020,0 hPa 0,0 mm 10,1 km/h (2 Bft) S 180 13,9 C 8,0 km/h (2 Bft)
06.06.2015 02:15 16,7 C 16,8 C 83 % 1020,0 hPa 0,0 mm 8,0 km/h (2 Bft) SW 225 13,8 C 13,5 km/h (3 Bft)
06.06.2015 02:20 16,7 C 16,8 C 83 % 1020,2 hPa 0,0 mm 4,7 km/h (1 Bft) S 180 13,8 C 3,4 km/h (1 Bft)
06.06.2015 02:25 16,7 C 16,8 C 83 % 1020,2 hPa 0,0 mm 4,4 km/h (1 Bft) S 180 13,8 C 7,0 km/h (2 Bft)
06.06.2015 02:30 16,6 C 16,7 C 83 % 1020,2 hPa 0,0 mm 2,3 km/h (1 Bft) S-SO 157 13,7 C 0,0 km/h (0 Bft)
06.06.2015 02:35 16,5 C 16,5 C 83 % 1020,2 hPa 0,0 mm 0,8 km/h (0 Bft) W-SW 247 13,6 C 0,0 km/h (0 Bft)
06.06.2015 02:40 16,3 C 16,3 C 82 % 1020,3 hPa 0,0 mm 0,0 km/h (0 Bft) SO 135 13,2 C 0,0 km/h (0 Bft)
06.06.2015 02:45 16,3 C 16,2 C 82 % 1020,3 hPa 0,0 mm 0,0 km/h (0 Bft) SW 225 13,2 C 0,0 km/h (0 Bft)
06.06.2015 02:50 16,2 C 16,1 C 82 % 1020,3 hPa 0,0 mm 0,3 km/h (0 Bft) SO 135 13,1 C 0,0 km/h (0 Bft)
06.06.2015 02:55 16,0 C 15,9 C 82 % 1020,3 hPa 0,0 mm 0,3 km/h (0 Bft) SO 135 12,9 C 0,0 km/h (0 Bft)
06.06.2015 03:00 15,9 C 15,8 C 83 % 1020,4 hPa 0,0 mm 0,3 km/h (0 Bft) W-SW 247 13,0 C 0,0 km/h (0 Bft)
06.06.2015 03:05 15,9 C 15,8 C 83 % 1020,4 hPa 0,0 mm 0,3 km/h (0 Bft) W-SW 247 13,0 C 0,0 km/h (0 Bft)
06.06.2015 03:10 15,9 C 15,8 C 83 % 1020,4 hPa 0,0 mm 0,0 km/h (0 Bft) O 90 13,0 C 0,0 km/h (0 Bft)
06.06.2015 03:15 16,0 C 15,9 C 83 % 1020,4 hPa 0,0 mm 0,0 km/h (0 Bft) O-NO 67 13,1 C 0,0 km/h (0 Bft)
06.06.2015 03:20 15,9 C 15,8 C 83 % 1020,5 hPa 0,0 mm 0,0 km/h (0 Bft) O-NO 67 13,0 C 0,0 km/h (0 Bft)
06.06.2015 03:25 15,8 C 15,7 C 84 % 1020,5 hPa 0,0 mm 0,0 km/h (0 Bft) O-NO 67 13,1 C 0,0 km/h (0 Bft)
06.06.2015 03:30 15,7 C 15,6 C 84 % 1020,5 hPa 0,0 mm 0,0 km/h (0 Bft) O-NO 67 13,0 C 0,0 km/h (0 Bft)
06.06.2015 03:35 15,7 C 15,6 C 84 % 1020,5 hPa 0,0 mm 0,0 km/h (0 Bft) O-NO 67 13,0 C 0,0 km/h (0 Bft)
06.06.2015 03:40 15,7 C 15,5 C 85 % 1020,7 hPa 0,0 mm 0,0 km/h (0 Bft) O 90 13,2 C 0,0 km/h (0 Bft)
06.06.2015 03:45 15,7 C 15,5 C 85 % 1020,7 hPa 0,0 mm 0,0 km/h (0 Bft) NO 45 13,2 C 0,0 km/h (0 Bft)
06.06.2015 03:50 15,4 C 15,3 C 85 % 1020,7 hPa 0,0 mm 0,0 km/h (0 Bft) NO 45 12,9 C 0,0 km/h (0 Bft)
06.06.2015 03:55 15,5 C 15,3 C 86 % 1020,7 hPa 0,0 mm 0,0 km/h (0 Bft) O-SO 112 13,2 C 0,0 km/h (0 Bft)
06.06.2015 04:00 15,4 C 15,2 C 85 % 1020,8 hPa 0,0 mm 0,0 km/h (0 Bft) SO 135 12,9 C 0,0 km/h (0 Bft)
06.06.2015 04:05 15,9 C 15,7 C 86 % 1020,8 hPa 0,0 mm 2,1 km/h (1 Bft) S 180 13,6 C 10,4 km/h (2 Bft)
06.06.2015 04:10 16,7 C 16,6 C 81 % 1020,8 hPa 0,0 mm 7,0 km/h (2 Bft) SW 225 13,4 C 12,7 km/h (3 Bft)
06.06.2015 04:15 17,1 C 17,1 C 81 % 1020,8 hPa 0,0 mm 8,0 km/h (2 Bft) SW 225 13,8 C 17,3 km/h (3 Bft)
06.06.2015 04:20 17,5 C 17,6 C 80 % 1021,5 hPa 0,0 mm 5,7 km/h (1 Bft) W-NW 292 14,0 C 7,5 km/h (2 Bft)
06.06.2015 04:25 17,9 C 18,0 C 79 % 1021,5 hPa 0,0 mm 4,9 km/h (1 Bft) W 270 14,2 C 22,5 km/h (4 Bft)
06.06.2015 04:30 18,1 C 18,2 C 80 % 1021,5 hPa 0,0 mm 6,5 km/h (2 Bft) SW 225 14,6 C 13,2 km/h (3 Bft)
06.06.2015 04:35 18,2 C 18,3 C 79 % 1021,5 hPa 0,0 mm 6,7 km/h (2 Bft) W-NW 292 14,5 C 6,7 km/h (2 Bft)
06.06.2015 04:40 18,3 C 18,3 C 78 % 1021,4 hPa 0,0 mm 6,2 km/h (2 Bft) W 270 14,4 C 11,4 km/h (2 Bft)
06.06.2015 04:45 18,5 C 18,5 C 77 % 1021,4 hPa 0,0 mm 6,0 km/h (2 Bft) W 270 14,4 C 8,8 km/h (2 Bft)
06.06.2015 04:50 18,6 C 18,6 C 77 % 1021,4 hPa 0,0 mm 5,7 km/h (1 Bft) S 180 14,5 C 2,6 km/h (1 Bft)
06.06.2015 04:55 18,5 C 18,5 C 76 % 1021,4 hPa 0,0 mm 4,9 km/h (1 Bft) W-NW 292 14,2 C 24,6 km/h (4 Bft)
06.06.2015 05:00 18,6 C 18,6 C 76 % 1021,4 hPa 0,0 mm 4,4 km/h (1 Bft) W-SW 247 14,3 C 15,3 km/h (3 Bft)
06.06.2015 05:05 18,6 C 18,6 C 76 % 1021,4 hPa 0,0 mm 3,6 km/h (1 Bft) S-SO 157 14,3 C 10,9 km/h (2 Bft)
06.06.2015 05:10 18,6 C 18,6 C 76 % 1021,4 hPa 0,0 mm 2,6 km/h (1 Bft) S 180 14,3 C 3,6 km/h (1 Bft)
06.06.2015 05:15 18,6 C 18,7 C 76 % 1021,4 hPa 0,0 mm 2,6 km/h (1 Bft) NO 45 14,3 C 7,3 km/h (2 Bft)
06.06.2015 05:20 18,9 C 18,9 C 76 % 1021,2 hPa 0,0 mm 3,6 km/h (1 Bft) NW 315 14,6 C 4,4 km/h (1 Bft)
06.06.2015 05:25 18,9 C 18,9 C 75 % 1021,2 hPa 0,0 mm 3,6 km/h (1 Bft) S 180 14,4 C 7,8 km/h (2 Bft)
06.06.2015 05:30 19,1 C 19,1 C 75 % 1021,2 hPa 0,0 mm 3,6 km/h (1 Bft) S-SW 202 14,6 C 5,2 km/h (1 Bft)
06.06.2015 05:35 19,1 C 19,2 C 74 % 1021,2 hPa 0,0 mm 3,1 km/h (1 Bft) S 180 14,4 C 3,4 km/h (1 Bft)
06.06.2015 05:40 19,3 C 19,4 C 74 % 1021,8 hPa 0,0 mm 3,6 km/h (1 Bft) SW 225 14,5 C 7,3 km/h (2 Bft)
06.06.2015 05:45 19,3 C 19,5 C 73 % 1021,8 hPa 0,0 mm 3,9 km/h (1 Bft) S-SW 202 14,3 C 4,1 km/h (1 Bft)
06.06.2015 05:50 19,4 C 19,7 C 73 % 1021,8 hPa 0,0 mm 3,1 km/h (1 Bft) NW 315 14,4 C 6,0 km/h (2 Bft)
06.06.2015 05:55 19,5 C 19,8 C 73 % 1021,8 hPa 0,0 mm 2,6 km/h (1 Bft) S 180 14,5 C 11,7 km/h (2 Bft)
06.06.2015 06:00 19,5 C 20,0 C 73 % 1021,9 hPa 0,0 mm 2,6 km/h (1 Bft) SW 225 14,5 C 0,0 km/h (0 Bft)
06.06.2015 06:05 19,5 C 19,8 C 73 % 1021,9 hPa 0,0 mm 2,3 km/h (1 Bft) W-SW 247 14,5 C 4,1 km/h (1 Bft)
06.06.2015 06:10 19,6 C 19,8 C 73 % 1021,9 hPa 0,0 mm 2,6 km/h (1 Bft) W-NW 292 14,6 C 3,1 km/h (1 Bft)
06.06.2015 06:15 19,5 C 19,6 C 73 % 1021,9 hPa 0,0 mm 3,1 km/h (1 Bft) N-NW 337 14,5 C 3,6 km/h (1 Bft)
06.06.2015 06:20 19,7 C 19,8 C 72 % 1022,1 hPa 0,0 mm 3,6 km/h (1 Bft) S-SO 157 14,5 C 2,6 km/h (1 Bft)
06.06.2015 06:25 19,7 C 20,0 C 72 % 1022,1 hPa 0,0 mm 3,9 km/h (1 Bft) S-SO 157 14,5 C 10,9 km/h (2 Bft)
06.06.2015 06:30 19,5 C 19,8 C 72 % 1022,1 hPa 0,0 mm 3,9 km/h (1 Bft) S-SW 202 14,3 C 6,0 km/h (2 Bft)
06.06.2015 06:35 19,3 C 19,8 C 73 % 1022,1 hPa 0,0 mm 3,6 km/h (1 Bft) S-SO 157 14,3 C 0,0 km/h (0 Bft)
06.06.2015 06:40 19,4 C 19,7 C 74 % 1022,1 hPa 0,0 mm 1,3 km/h (1 Bft) S 180 14,6 C 0,0 km/h (0 Bft)
06.06.2015 06:45 19,4 C 19,7 C 74 % 1022,1 hPa 0,0 mm 1,0 km/h (0 Bft) N-NW 337 14,6 C 2,6 km/h (1 Bft)
06.06.2015 06:50 19,5 C 19,8 C 74 % 1022,1 hPa 0,0 mm 2,3 km/h (1 Bft) SW 225 14,7 C 0,0 km/h (0 Bft)
06.06.2015 06:55 19,5 C 20,0 C 73 % 1022,1 hPa 0,0 mm 3,4 km/h (1 Bft) S 180 14,5 C 14,2 km/h (3 Bft)
06.06.2015 07:00 19,6 C 20,1 C 73 % 1022,2 hPa 0,0 mm 5,2 km/h (1 Bft) SW 225 14,6 C 7,5 km/h (2 Bft)
06.06.2015 07:05 19,5 C 20,0 C 72 % 1022,2 hPa 0,0 mm 6,2 km/h (2 Bft) W-SW 247 14,3 C 7,8 km/h (2 Bft)
06.06.2015 07:10 19,4 C 19,9 C 72 % 1022,2 hPa 0,0 mm 3,9 km/h (1 Bft) S-SW 202 14,2 C 8,3 km/h (2 Bft)
06.06.2015 07:15 19,5 C 19,9 C 72 % 1022,2 hPa 0,0 mm 4,1 km/h (1 Bft) S 180 14,3 C 7,0 km/h (2 Bft)
06.06.2015 07:20 19,2 C 19,8 C 72 % 1022,1 hPa 0,0 mm 3,9 km/h (1 Bft) O-SO 112 14,0 C 0,0 km/h (0 Bft)
06.06.2015 07:25 19,1 C 19,6 C 72 % 1022,1 hPa 0,0 mm 1,8 km/h (1 Bft) O-SO 112 13,9 C 0,0 km/h (0 Bft)
06.06.2015 07:30 18,8 C 19,4 C 73 % 1022,1 hPa 0,0 mm 0,0 km/h (0 Bft) S-SW 202 13,9 C 0,0 km/h (0 Bft)
06.06.2015 07:35 18,7 C 19,2 C 73 % 1022,1 hPa 0,0 mm 0,0 km/h (0 Bft) W 270 13,8 C 0,0 km/h (0 Bft)
06.06.2015 07:40 18,6 C 19,0 C 74 % 1022,6 hPa 0,0 mm 0,3 km/h (0 Bft) W-SW 247 13,9 C 0,0 km/h (0 Bft)
06.06.2015 07:45 18,6 C 19,0 C 74 % 1022,6 hPa 0,0 mm 0,5 km/h (0 Bft) O 90 13,9 C 0,0 km/h (0 Bft)
06.06.2015 07:50 18,6 C 18,9 C 75 % 1022,6 hPa 0,0 mm 0,3 km/h (0 Bft) NW 315 14,1 C 0,0 km/h (0 Bft)
06.06.2015 07:55 18,6 C 18,9 C 75 % 1022,6 hPa 0,0 mm 0,0 km/h (0 Bft) W 270 14,1 C 0,0 km/h (0 Bft)
06.06.2015 08:00 18,7 C 19,0 C 75 % 1022,4 hPa 0,0 mm 0,3 km/h (0 Bft) NW 315 14,2 C 0,0 km/h (0 Bft)
06.06.2015 08:05 18,7 C 19,0 C 76 % 1022,4 hPa 0,0 mm 0,3 km/h (0 Bft) O-SO 112 14,4 C 0,0 km/h (0 Bft)
06.06.2015 08:10 18,7 C 19,1 C 76 % 1022,4 hPa 0,0 mm 0,0 km/h (0 Bft) SO 135 14,4 C 0,0 km/h (0 Bft)
06.06.2015 08:15 18,7 C 19,1 C 76 % 1022,4 hPa 0,0 mm 0,0 km/h (0 Bft) SO 135 14,4 C 0,0 km/h (0 Bft)
06.06.2015 08:20 18,7 C 19,3 C 76 % 1022,7 hPa 0,0 mm 0,0 km/h (0 Bft) N-NW 337 14,4 C 0,0 km/h (0 Bft)
06.06.2015 08:25 18,8 C 19,5 C 77 % 1022,7 hPa 0,0 mm 0,8 km/h (0 Bft) O-SO 112 14,7 C 0,0 km/h (0 Bft)
06.06.2015 08:30 18,9 C 19,8 C 77 % 1022,7 hPa 0,0 mm 0,8 km/h (0 Bft) SO 135 14,8 C 0,0 km/h (0 Bft)
06.06.2015 08:35 19,0 C 20,0 C 77 % 1022,7 hPa 0,0 mm 0,3 km/h (0 Bft) S 180 14,9 C 2,8 km/h (1 Bft)
06.06.2015 08:40 19,4 C 20,7 C 76 % 1022,8 hPa 0,0 mm 0,3 km/h (0 Bft) O-SO 112 15,1 C 0,0 km/h (0 Bft)
06.06.2015 08:45 20,3 C 23,0 C 76 % 1022,8 hPa 0,0 mm 0,8 km/h (0 Bft) W 270 15,9 C 3,9 km/h (1 Bft)
06.06.2015 08:50 21,8 C 26,8 C 75 % 1022,8 hPa 0,0 mm 1,8 km/h (1 Bft) W-SW 247 17,2 C 0,0 km/h (0 Bft)
06.06.2015 08:55 22,2 C 28,4 C 71 % 1022,8 hPa 0,0 mm 4,1 km/h (1 Bft) SW 225 16,7 C 7,8 km/h (2 Bft)
06.06.2015 09:00 22,9 C 29,9 C 69 % 1022,2 hPa 0,0 mm 4,7 km/h (1 Bft) S 180 16,9 C 4,7 km/h (1 Bft)
06.06.2015 09:05 23,1 C 30,3 C 67 % 1022,2 hPa 0,0 mm 4,9 km/h (1 Bft) W-SW 247 16,6 C 4,4 km/h (1 Bft)
06.06.2015 09:10 23,9 C 31,3 C 66 % 1022,2 hPa 0,0 mm 3,9 km/h (1 Bft) SW 225 17,1 C 2,8 km/h (1 Bft)
06.06.2015 09:15 24,4 C 32,1 C 65 % 1022,2 hPa 0,0 mm 1,6 km/h (1 Bft) SW 225 17,4 C 0,0 km/h (0 Bft)
06.06.2015 09:20 25,2 C 32,6 C 62 % 1022,3 hPa 0,0 mm 1,3 km/h (1 Bft) S-SO 157 17,4 C 6,5 km/h (2 Bft)
06.06.2015 09:25 25,4 C 32,8 C 61 % 1022,3 hPa 0,0 mm 2,1 km/h (1 Bft) S-SW 202 17,3 C 3,4 km/h (1 Bft)
06.06.2015 09:30 25,5 C 32,8 C 59 % 1022,3 hPa 0,0 mm 3,1 km/h (1 Bft) S-SW 202 16,9 C 2,8 km/h (1 Bft)
06.06.2015 09:35 25,5 C 32,9 C 59 % 1022,3 hPa 0,0 mm 2,8 km/h (1 Bft) NO 45 16,9 C 0,0 km/h (0 Bft)
06.06.2015 09:40 26,0 C 33,0 C 58 % 1022,9 hPa 0,0 mm 2,3 km/h (1 Bft) W 270 17,1 C 3,1 km/h (1 Bft)
06.06.2015 09:45 26,1 C 33,0 C 58 % 1022,9 hPa 0,0 mm 3,4 km/h (1 Bft) NW 315 17,2 C 4,1 km/h (1 Bft)
06.06.2015 09:50 26,0 C 32,3 C 56 % 1022,9 hPa 0,0 mm 3,6 km/h (1 Bft) NW 315 16,5 C 7,0 km/h (2 Bft)
06.06.2015 09:55 25,9 C 31,6 C 58 % 1022,9 hPa 0,0 mm 3,1 km/h (1 Bft) N-NW 337 17,0 C 4,9 km/h (1 Bft)
06.06.2015 10:00 26,3 C 32,3 C 56 % 1023,2 hPa 0,0 mm 3,9 km/h (1 Bft) N-NO 22 16,8 C 7,3 km/h (2 Bft)
06.06.2015 10:05 26,6 C 32,9 C 56 % 1023,2 hPa 0,0 mm 3,9 km/h (1 Bft) N-NW 337 17,1 C 7,3 km/h (2 Bft)
06.06.2015 10:10 26,7 C 33,1 C 55 % 1023,2 hPa 0,0 mm 4,9 km/h (1 Bft) W 270 16,9 C 10,1 km/h (2 Bft)
06.06.2015 10:15 26,6 C 32,9 C 55 % 1023,2 hPa 0,0 mm 5,4 km/h (1 Bft) W 270 16,8 C 7,5 km/h (2 Bft)
06.06.2015 10:20 26,4 C 31,2 C 53 % 1024,6 hPa 0,0 mm 5,7 km/h (1 Bft) NW 315 16,0 C 4,1 km/h (1 Bft)
06.06.2015 10:25 26,4 C 30,9 C 54 % 1024,6 hPa 0,0 mm 5,4 km/h (1 Bft) W-NW 292 16,3 C 4,9 km/h (1 Bft)
06.06.2015 10:30 26,5 C 31,2 C 53 % 1024,6 hPa 0,0 mm 5,4 km/h (1 Bft) N-NO 22 16,1 C 9,1 km/h (2 Bft)
06.06.2015 10:35 26,5 C 31,2 C 53 % 1024,6 hPa 0,0 mm 5,7 km/h (1 Bft) N-NW 337 16,1 C 8,8 km/h (2 Bft)
06.06.2015 10:40 26,6 C 31,2 C 51 % 1023,8 hPa 0,0 mm 7,3 km/h (2 Bft) N-NO 22 15,6 C 10,6 km/h (2 Bft)
06.06.2015 10:45 26,6 C 31,2 C 50 % 1023,8 hPa 0,0 mm 7,8 km/h (2 Bft) NW 315 15,3 C 9,8 km/h (2 Bft)
06.06.2015 10:50 26,7 C 31,7 C 50 % 1023,8 hPa 0,0 mm 7,5 km/h (2 Bft) W 270 15,4 C 8,8 km/h (2 Bft)
06.06.2015 10:55 26,5 C 31,6 C 50 % 1023,8 hPa 0,0 mm 7,5 km/h (2 Bft) NO 45 15,2 C 11,7 km/h (2 Bft)
06.06.2015 11:00 26,8 C 31,8 C 50 % 1023,8 hPa 0,0 mm 7,0 km/h (2 Bft) W 270 15,5 C 7,8 km/h (2 Bft)
06.06.2015 11:05 27,0 C 31,9 C 50 % 1023,8 hPa 0,0 mm 6,5 km/h (2 Bft) NW 315 15,7 C 6,7 km/h (2 Bft)
06.06.2015 11:10 27,2 C 31,8 C 50 % 1023,8 hPa 0,0 mm 6,7 km/h (2 Bft) N-NW 337 15,9 C 8,0 km/h (2 Bft)
06.06.2015 11:15 27,0 C 31,5 C 49 % 1023,8 hPa 0,0 mm 7,5 km/h (2 Bft) W 270 15,4 C 7,0 km/h (2 Bft)
06.06.2015 11:20 27,2 C 31,6 C 50 % 1024,1 hPa 0,0 mm 7,8 km/h (2 Bft) O 90 15,9 C 11,4 km/h (2 Bft)
06.06.2015 11:25 27,0 C 31,5 C 50 % 1024,1 hPa 0,0 mm 6,7 km/h (2 Bft) NW 315 15,7 C 4,7 km/h (1 Bft)
06.06.2015 11:30 27,2 C 31,4 C 50 % 1024,1 hPa 0,0 mm 8,0 km/h (2 Bft) W 270 15,9 C 12,7 km/h (3 Bft)
06.06.2015 11:35 26,9 C 31,0 C 49 % 1024,1 hPa 0,0 mm 7,8 km/h (2 Bft) NW 315 15,3 C 4,7 km/h (1 Bft)
06.06.2015 11:40 27,2 C 31,8 C 49 % 1024,1 hPa 0,0 mm 6,2 km/h (2 Bft) NW 315 15,5 C 12,4 km/h (3 Bft)
06.06.2015 11:45 27,2 C 31,5 C 49 % 1024,1 hPa 0,0 mm 5,7 km/h (1 Bft) NW 315 15,5 C 9,8 km/h (2 Bft)
06.06.2015 11:50 27,4 C 31,6 C 48 % 1024,1 hPa 0,0 mm 7,5 km/h (2 Bft) N-NO 22 15,4 C 12,2 km/h (2 Bft)
06.06.2015 11:55 27,2 C 31,7 C 48 % 1024,1 hPa 0,0 mm 7,3 km/h (2 Bft) N-NO 22 15,2 C 5,2 km/h (1 Bft)
06.06.2015 12:00 27,2 C 31,8 C 48 % 1024,1 hPa 0,0 mm 7,3 km/h (2 Bft) O-NO 67 15,2 C 17,9 km/h (3 Bft)
06.06.2015 12:05 27,1 C 31,5 C 48 % 1024,1 hPa 0,0 mm 7,5 km/h (2 Bft) N-NO 22 15,1 C 6,0 km/h (2 Bft)
06.06.2015 12:10 27,2 C 31,3 C 48 % 1024,1 hPa 0,0 mm 8,3 km/h (2 Bft) W-SW 247 15,2 C 9,6 km/h (2 Bft)
06.06.2015 12:15 27,2 C 31,2 C 48 % 1024,1 hPa 0,0 mm 8,5 km/h (2 Bft) NO 45 15,2 C 12,9 km/h (3 Bft)
06.06.2015 12:20 27,1 C 31,5 C 49 % 1024,1 hPa 0,0 mm 6,7 km/h (2 Bft) NW 315 15,4 C 6,7 km/h (2 Bft)
06.06.2015 12:25 27,3 C 31,5 C 49 % 1024,1 hPa 0,0 mm 7,3 km/h (2 Bft) N-NW 337 15,6 C 4,7 km/h (1 Bft)
06.06.2015 12:30 27,2 C 31,8 C 48 % 1024,1 hPa 0,0 mm 6,7 km/h (2 Bft) O-SO 112 15,2 C 10,9 km/h (2 Bft)
06.06.2015 12:35 27,1 C 31,7 C 48 % 1024,1 hPa 0,0 mm 6,2 km/h (2 Bft) O-NO 67 15,1 C 7,5 km/h (2 Bft)
06.06.2015 12:40 27,3 C 31,8 C 48 % 1023,9 hPa 0,0 mm 7,5 km/h (2 Bft) W-SW 247 15,3 C 12,9 km/h (3 Bft)
06.06.2015 12:45 27,5 C 31,6 C 48 % 1023,9 hPa 0,0 mm 7,5 km/h (2 Bft) N-NW 337 15,5 C 8,8 km/h (2 Bft)
06.06.2015 12:50 27,7 C 31,8 C 48 % 1023,9 hPa 0,0 mm 7,5 km/h (2 Bft) NW 315 15,7 C 8,0 km/h (2 Bft)
06.06.2015 12:55 28,0 C 32,1 C 49 % 1023,9 hPa 0,0 mm 7,0 km/h (2 Bft) W-NW 292 16,3 C 9,1 km/h (2 Bft)
06.06.2015 13:00 28,3 C 32,0 C 48 % 1023,9 hPa 0,0 mm 7,3 km/h (2 Bft) NW 315 16,2 C 7,3 km/h (2 Bft)
06.06.2015 13:05 28,2 C 31,7 C 48 % 1023,9 hPa 0,0 mm 7,3 km/h (2 Bft) NW 315 16,1 C 6,5 km/h (2 Bft)
06.06.2015 13:10 28,4 C 31,4 C 47 % 1023,9 hPa 0,0 mm 7,0 km/h (2 Bft) N-NW 337 16,0 C 11,1 km/h (2 Bft)
06.06.2015 13:15 28,4 C 30,8 C 47 % 1023,9 hPa 0,0 mm 8,0 km/h (2 Bft) W 270 16,0 C 9,3 km/h (2 Bft)
06.06.2015 13:20 28,1 C 29,8 C 45 % 1023,8 hPa 0,0 mm 9,1 km/h (2 Bft) N-NW 337 15,0 C 9,3 km/h (2 Bft)
06.06.2015 13:25 28,2 C 29,9 C 47 % 1023,8 hPa 0,0 mm 8,5 km/h (2 Bft) NW 315 15,8 C 14,0 km/h (3 Bft)
06.06.2015 13:30 28,4 C 30,6 C 47 % 1023,8 hPa 0,0 mm 8,3 km/h (2 Bft) NO 45 16,0 C 8,5 km/h (2 Bft)
06.06.2015 13:35 28,2 C 31,1 C 46 % 1023,8 hPa 0,0 mm 8,0 km/h (2 Bft) NW 315 15,5 C 6,2 km/h (2 Bft)
06.06.2015 13:40 28,0 C 31,5 C 47 % 1023,6 hPa 0,0 mm 7,0 km/h (2 Bft) N-NO 22 15,6 C 4,4 km/h (1 Bft)
06.06.2015 13:45 28,3 C 31,8 C 48 % 1023,6 hPa 0,0 mm 6,7 km/h (2 Bft) NW 315 16,2 C 12,4 km/h (3 Bft)
06.06.2015 13:50 28,5 C 32,0 C 47 % 1023,6 hPa 0,0 mm 6,5 km/h (2 Bft) NW 315 16,1 C 8,8 km/h (2 Bft)
06.06.2015 13:55 28,6 C 32,2 C 47 % 1023,6 hPa 0,0 mm 8,0 km/h (2 Bft) W-SW 247 16,2 C 13,7 km/h (3 Bft)
06.06.2015 14:00 28,5 C 32,0 C 48 % 1023,6 hPa 0,0 mm 8,8 km/h (2 Bft) NW 315 16,4 C 8,0 km/h (2 Bft)
06.06.2015 14:05 28,8 C 32,0 C 48 % 1023,6 hPa 0,0 mm 8,5 km/h (2 Bft) NW 315 16,7 C 7,3 km/h (2 Bft)
06.06.2015 14:10 28,9 C 32,2 C 47 % 1023,6 hPa 0,0 mm 7,0 km/h (2 Bft) SW 225 16,4 C 12,2 km/h (2 Bft)
06.06.2015 14:15 28,8 C 32,6 C 48 % 1023,6 hPa 0,0 mm 6,7 km/h (2 Bft) N-NO 22 16,7 C 8,5 km/h (2 Bft)
06.06.2015 14:20 28,6 C 32,8 C 47 % 1023,9 hPa 0,0 mm 6,2 km/h (2 Bft) N-NW 337 16,2 C 7,5 km/h (2 Bft)
06.06.2015 14:25 28,0 C 31,8 C 47 % 1023,9 hPa 0,0 mm 7,0 km/h (2 Bft) N 360 15,6 C 2,6 km/h (1 Bft)
06.06.2015 14:30 28,1 C 31,7 C 48 % 1023,9 hPa 0,0 mm 6,5 km/h (2 Bft) N-NO 22 16,0 C 2,6 km/h (1 Bft)
06.06.2015 14:35 28,1 C 31,2 C 47 % 1023,9 hPa 0,0 mm 5,7 km/h (1 Bft) NW 315 15,7 C 10,6 km/h (2 Bft)
06.06.2015 14:40 28,6 C 31,9 C 48 % 1023,2 hPa 0,0 mm 6,5 km/h (2 Bft) N-NO 22 16,5 C 4,9 km/h (1 Bft)
06.06.2015 14:45 28,7 C 32,6 C 47 % 1023,2 hPa 0,0 mm 6,5 km/h (2 Bft) O-NO 67 16,3 C 8,3 km/h (2 Bft)
06.06.2015 14:50 28,5 C 32,7 C 47 % 1023,2 hPa 0,0 mm 6,5 km/h (2 Bft) N-NW 337 16,1 C 6,5 km/h (2 Bft)
06.06.2015 14:55 28,1 C 32,4 C 47 % 1023,2 hPa 0,0 mm 7,3 km/h (2 Bft) NO 45 15,7 C 10,4 km/h (2 Bft)
06.06.2015 15:00 27,7 C 32,0 C 48 % 1023,5 hPa 0,0 mm 5,4 km/h (1 Bft) N-NO 22 15,7 C 3,4 km/h (1 Bft)
06.06.2015 15:05 27,4 C 31,2 C 48 % 1023,5 hPa 0,0 mm 6,2 km/h (2 Bft) W 270 15,4 C 11,4 km/h (2 Bft)
06.06.2015 15:10 27,6 C 30,6 C 48 % 1023,5 hPa 0,0 mm 7,0 km/h (2 Bft) N-NO 22 15,6 C 10,9 km/h (2 Bft)
06.06.2015 15:15 27,8 C 31,4 C 48 % 1023,5 hPa 0,0 mm 7,0 km/h (2 Bft) NO 45 15,8 C 5,4 km/h (1 Bft)
06.06.2015 15:20 28,3 C 32,0 C 48 % 1023,3 hPa 0,0 mm 6,7 km/h (2 Bft) N-NW 337 16,2 C 6,7 km/h (2 Bft)
06.06.2015 15:25 28,6 C 32,5 C 47 % 1023,3 hPa 0,0 mm 5,7 km/h (1 Bft) W-NW 292 16,2 C 17,3 km/h (3 Bft)
06.06.2015 15:30 28,2 C 32,4 C 47 % 1023,3 hPa 0,0 mm 7,3 km/h (2 Bft) N-NW 337 15,8 C 16,1 km/h (3 Bft)
06.06.2015 15:35 28,2 C 32,0 C 48 % 1025,4 hPa 0,0 mm 9,3 km/h (2 Bft) N-NW 337 16,1 C 11,1 km/h (2 Bft)
06.06.2015 15:40 28,1 C 31,8 C 47 % 1025,4 hPa 0,0 mm 10,1 km/h (2 Bft) W 270 15,7 C 12,2 km/h (2 Bft)
06.06.2015 15:45 27,6 C 30,5 C 47 % 1025,4 hPa 0,0 mm 7,8 km/h (2 Bft) N-NO 22 15,3 C 3,6 km/h (1 Bft)
06.06.2015 15:50 27,3 C 29,5 C 48 % 1025,4 hPa 0,0 mm 6,2 km/h (2 Bft) N-NO 22 15,3 C 7,3 km/h (2 Bft)
06.06.2015 15:55 27,2 C 29,1 C 48 % 1025,7 hPa 0,0 mm 7,5 km/h (2 Bft) W 270 15,2 C 5,2 km/h (1 Bft)
06.06.2015 16:00 27,1 C 28,9 C 49 % 1025,7 hPa 0,0 mm 8,3 km/h (2 Bft) O-NO 67 15,4 C 12,2 km/h (2 Bft)
06.06.2015 16:05 27,0 C 28,9 C 49 % 1025,7 hPa 0,0 mm 6,7 km/h (2 Bft) O-NO 67 15,4 C 6,0 km/h (2 Bft)
06.06.2015 16:10 26,8 C 29,1 C 49 % 1025,7 hPa 0,0 mm 6,7 km/h (2 Bft) N-NW 337 15,2 C 4,9 km/h (1 Bft)
06.06.2015 16:15 26,9 C 29,4 C 50 % 1025,5 hPa 0,0 mm 4,4 km/h (1 Bft) N-NO 22 15,6 C 0,0 km/h (0 Bft)
06.06.2015 16:20 27,1 C 30,6 C 48 % 1025,5 hPa 0,0 mm 4,4 km/h (1 Bft) N-NO 22 15,1 C 5,7 km/h (1 Bft)
06.06.2015 16:25 27,3 C 31,4 C 49 % 1025,5 hPa 0,0 mm 5,4 km/h (1 Bft) NO 45 15,6 C 11,7 km/h (2 Bft)
06.06.2015 16:30 27,2 C 31,9 C 48 % 1025,5 hPa 0,0 mm 6,2 km/h (2 Bft) NO 45 15,2 C 12,2 km/h (2 Bft)
06.06.2015 16:35 27,0 C 31,7 C 49 % 1025,7 hPa 0,0 mm 7,8 km/h (2 Bft) NO 45 15,4 C 9,6 km/h (2 Bft)
06.06.2015 16:40 27,0 C 31,6 C 48 % 1025,7 hPa 0,0 mm 9,1 km/h (2 Bft) N-NO 22 15,0 C 15,8 km/h (3 Bft)
06.06.2015 16:45 26,7 C 30,5 C 49 % 1025,7 hPa 0,0 mm 9,1 km/h (2 Bft) NO 45 15,1 C 12,7 km/h (3 Bft)
06.06.2015 16:50 26,5 C 29,4 C 49 % 1025,7 hPa 0,0 mm 7,5 km/h (2 Bft) O-NO 67 14,9 C 9,8 km/h (2 Bft)
06.06.2015 16:55 26,3 C 28,6 C 49 % 1025,7 hPa 0,0 mm 6,7 km/h (2 Bft) NO 45 14,7 C 9,8 km/h (2 Bft)
06.06.2015 17:00 26,0 C 27,8 C 50 % 1025,7 hPa 0,0 mm 6,0 km/h (2 Bft) NO 45 14,8 C 0,0 km/h (0 Bft)
06.06.2015 17:05 25,7 C 27,4 C 53 % 1025,7 hPa 0,0 mm 3,1 km/h (1 Bft) SO 135 15,4 C 0,0 km/h (0 Bft)
06.06.2015 17:10 25,4 C 26,9 C 53 % 1025,7 hPa 0,0 mm 0,5 km/h (0 Bft) SO 135 15,1 C 0,0 km/h (0 Bft)
06.06.2015 17:15 25,0 C 26,6 C 54 % 1025,9 hPa 0,0 mm 0,5 km/h (0 Bft) O 90 15,0 C 3,4 km/h (1 Bft)
06.06.2015 17:20 24,6 C 26,0 C 55 % 1025,9 hPa 0,0 mm 0,5 km/h (0 Bft) S-SO 157 14,9 C 0,0 km/h (0 Bft)
06.06.2015 17:25 24,4 C 25,7 C 56 % 1025,9 hPa 0,0 mm 0,8 km/h (0 Bft) S-SO 157 15,0 C 0,0 km/h (0 Bft)
06.06.2015 17:30 24,1 C 25,4 C 56 % 1025,9 hPa 0,0 mm 0,5 km/h (0 Bft) SO 135 14,8 C 0,0 km/h (0 Bft)
06.06.2015 17:35 24,0 C 25,2 C 56 % 1025,6 hPa 0,0 mm 0,3 km/h (0 Bft) S-SO 157 14,7 C 0,0 km/h (0 Bft)
06.06.2015 17:40 23,9 C 25,0 C 57 % 1025,6 hPa 0,0 mm 0,5 km/h (0 Bft) O-SO 112 14,9 C 3,1 km/h (1 Bft)
06.06.2015 17:45 23,8 C 25,0 C 58 % 1025,6 hPa 0,0 mm 0,8 km/h (0 Bft) SO 135 15,0 C 0,0 km/h (0 Bft)
06.06.2015 17:50 23,7 C 24,9 C 59 % 1025,6 hPa 0,0 mm 1,3 km/h (1 Bft) SO 135 15,2 C 3,9 km/h (1 Bft)
06.06.2015 17:55 23,6 C 24,9 C 59 % 1025,6 hPa 0,0 mm 1,3 km/h (1 Bft) S-SO 157 15,1 C 3,1 km/h (1 Bft)
06.06.2015 18:00 23,6 C 24,8 C 60 % 1025,6 hPa 0,0 mm 1,6 km/h (1 Bft) S 180 15,4 C 0,0 km/h (0 Bft)
06.06.2015 18:05 23,6 C 24,8 C 61 % 1025,6 hPa 0,0 mm 1,6 km/h (1 Bft) S 180 15,6 C 3,6 km/h (1 Bft)
06.06.2015 18:10 23,4 C 24,7 C 62 % 1025,6 hPa 0,0 mm 1,0 km/h (0 Bft) S 180 15,7 C 0,0 km/h (0 Bft)
06.06.2015 18:15 23,3 C 24,6 C 63 % 1025,4 hPa 0,0 mm 0,8 km/h (0 Bft) S 180 15,9 C 0,0 km/h (0 Bft)
06.06.2015 18:20 23,2 C 24,4 C 65 % 1025,4 hPa 0,0 mm 0,0 km/h (0 Bft) S 180 16,2 C 0,0 km/h (0 Bft)
06.06.2015 18:25 23,1 C 24,3 C 65 % 1025,4 hPa 0,0 mm 0,0 km/h (0 Bft) S 180 16,2 C 0,0 km/h (0 Bft)
06.06.2015 18:30 23,0 C 24,2 C 63 % 1025,4 hPa 0,0 mm 0,0 km/h (0 Bft) S-SO 157 15,6 C 0,0 km/h (0 Bft)
06.06.2015 18:35 23,0 C 24,0 C 64 % 1025,1 hPa 0,0 mm 0,0 km/h (0 Bft) S-SO 157 15,8 C 0,0 km/h (0 Bft)
06.06.2015 18:40 23,0 C 23,8 C 63 % 1025,1 hPa 0,0 mm 0,5 km/h (0 Bft) S-SO 157 15,6 C 2,8 km/h (1 Bft)
06.06.2015 18:45 22,9 C 23,7 C 65 % 1025,1 hPa 0,0 mm 1,6 km/h (1 Bft) S-SO 157 16,0 C 4,4 km/h (1 Bft)
06.06.2015 18:50 22,5 C 23,5 C 67 % 1025,1 hPa 0,0 mm 2,3 km/h (1 Bft) S-SO 157 16,1 C 3,1 km/h (1 Bft)
06.06.2015 18:55 22,2 C 23,3 C 68 % 1025,1 hPa 0,0 mm 2,3 km/h (1 Bft) S-SO 157 16,0 C 3,4 km/h (1 Bft)
06.06.2015 19:00 22,0 C 23,1 C 68 % 1025,1 hPa 0,0 mm 2,1 km/h (1 Bft) S-SO 157 15,8 C 0,0 km/h (0 Bft)
06.06.2015 19:05 21,9 C 22,9 C 69 % 1025,1 hPa 0,0 mm 1,3 km/h (1 Bft) S 180 15,9 C 4,7 km/h (1 Bft)
06.06.2015 19:10 21,7 C 22,5 C 68 % 1025,1 hPa 0,0 mm 0,8 km/h (0 Bft) S 180 15,5 C 0,0 km/h (0 Bft)
06.06.2015 19:15 21,7 C 22,3 C 68 % 1025,6 hPa 0,0 mm 0,8 km/h (0 Bft) S-SO 157 15,5 C 0,0 km/h (0 Bft)
06.06.2015 19:20 21,8 C 22,2 C 68 % 1025,6 hPa 0,0 mm 0,0 km/h (0 Bft) S-SO 157 15,6 C 0,0 km/h (0 Bft)
06.06.2015 19:25 21,8 C 22,0 C 68 % 1025,6 hPa 0,0 mm 0,0 km/h (0 Bft) S-SO 157 15,6 C 0,0 km/h (0 Bft)
06.06.2015 19:30 21,5 C 21,7 C 68 % 1025,6 hPa 0,0 mm 0,0 km/h (0 Bft) S-SO 157 15,3 C 0,0 km/h (0 Bft)
06.06.2015 19:35 21,3 C 21,3 C 68 % 1025,8 hPa 0,0 mm 0,0 km/h (0 Bft) S-SO 157 15,1 C 0,0 km/h (0 Bft)
06.06.2015 19:40 21,0 C 20,9 C 69 % 1025,8 hPa 0,0 mm 0,0 km/h (0 Bft) O-NO 67 15,1 C 0,0 km/h (0 Bft)
06.06.2015 19:45 20,8 C 20,6 C 70 % 1025,8 hPa 0,0 mm 1,0 km/h (0 Bft) W-NW 292 15,1 C 10,1 km/h (2 Bft)
06.06.2015 19:50 19,7 C 19,4 C 72 % 1025,8 hPa 0,0 mm 1,8 km/h (1 Bft) NO 45 14,5 C 5,4 km/h (1 Bft)
06.06.2015 19:55 19,4 C 19,0 C 76 % 1026,3 hPa 0,0 mm 3,4 km/h (1 Bft) W-SW 247 15,1 C 12,4 km/h (3 Bft)
06.06.2015 20:00 18,9 C 18,4 C 76 % 1026,3 hPa 0,7 mm 5,7 km/h (1 Bft) S-SO 157 14,6 C 10,1 km/h (2 Bft)
06.06.2015 20:05 18,6 C 18,1 C 75 % 1026,3 hPa 0,0 mm 6,7 km/h (2 Bft) SW 225 14,1 C 27,4 km/h (4 Bft)
06.06.2015 20:10 18,2 C 17,7 C 76 % 1026,3 hPa 0,0 mm 5,2 km/h (1 Bft) W 270 13,9 C 7,5 km/h (2 Bft)
06.06.2015 20:15 18,1 C 17,6 C 76 % 1027,0 hPa 0,0 mm 4,9 km/h (1 Bft) N-NW 337 13,8 C 3,1 km/h (1 Bft)
06.06.2015 20:20 18,0 C 17,4 C 75 % 1027,0 hPa 0,0 mm 7,8 km/h (2 Bft) SW 225 13,5 C 9,3 km/h (2 Bft)
06.06.2015 20:25 17,7 C 17,1 C 76 % 1027,0 hPa 0,0 mm 7,0 km/h (2 Bft) W-SW 247 13,4 C 3,1 km/h (1 Bft)
06.06.2015 20:30 17,2 C 16,7 C 77 % 1027,0 hPa 0,0 mm 4,4 km/h (1 Bft) NW 315 13,1 C 7,8 km/h (2 Bft)
06.06.2015 20:35 17,0 C 16,5 C 77 % 1028,0 hPa 0,0 mm 3,1 km/h (1 Bft) N-NO 22 12,9 C 0,0 km/h (0 Bft)
06.06.2015 20:40 16,5 C 16,1 C 78 % 1028,0 hPa 1,4 mm 2,1 km/h (1 Bft) SW 225 12,6 C 4,4 km/h (1 Bft)
06.06.2015 20:45 16,3 C 15,9 C 79 % 1028,0 hPa 0,0 mm 4,1 km/h (1 Bft) W-SW 247 12,6 C 11,7 km/h (2 Bft)
06.06.2015 20:50 16,0 C 15,7 C 79 % 1028,0 hPa 0,0 mm 5,2 km/h (1 Bft) W-NW 292 12,4 C 5,7 km/h (1 Bft)
06.06.2015 20:55 16,0 C 15,6 C 80 % 1027,9 hPa 0,7 mm 4,9 km/h (1 Bft) W 270 12,5 C 10,4 km/h (2 Bft)
06.06.2015 21:00 15,9 C 15,6 C 82 % 1027,9 hPa 0,0 mm 5,2 km/h (1 Bft) W 270 12,8 C 17,9 km/h (3 Bft)
06.06.2015 21:05 16,0 C 15,6 C 81 % 1027,9 hPa 0,0 mm 7,0 km/h (2 Bft) S 180 12,7 C 10,9 km/h (2 Bft)
06.06.2015 21:10 16,0 C 15,6 C 81 % 1027,9 hPa 0,0 mm 9,6 km/h (2 Bft) W-NW 292 12,7 C 18,9 km/h (3 Bft)
06.06.2015 21:15 15,9 C 15,5 C 82 % 1027,9 hPa 0,0 mm 10,4 km/h (2 Bft) W-NW 292 12,8 C 16,6 km/h (3 Bft)
06.06.2015 21:20 15,8 C 15,4 C 82 % 1027,9 hPa 0,7 mm 10,4 km/h (2 Bft) W 270 12,7 C 3,1 km/h (1 Bft)
06.06.2015 21:25 15,5 C 15,2 C 83 % 1027,9 hPa 0,0 mm 6,7 km/h (2 Bft) O-SO 112 12,6 C 27,7 km/h (4 Bft)
06.06.2015 21:30 15,4 C 15,1 C 83 % 1027,9 hPa 0,0 mm 3,9 km/h (1 Bft) W-NW 292 12,5 C 7,5 km/h (2 Bft)
06.06.2015 21:35 15,3 C 15,0 C 83 % 1028,2 hPa 0,7 mm 4,9 km/h (1 Bft) SW 225 12,4 C 10,4 km/h (2 Bft)
06.06.2015 21:40 15,3 C 15,0 C 84 % 1028,2 hPa 0,0 mm 6,7 km/h (2 Bft) W-SW 247 12,6 C 15,0 km/h (3 Bft)
06.06.2015 21:45 15,3 C 15,0 C 84 % 1028,2 hPa 0,0 mm 8,8 km/h (2 Bft) S 180 12,6 C 17,3 km/h (3 Bft)
06.06.2015 21:50 15,2 C 14,9 C 84 % 1028,2 hPa 0,7 mm 10,6 km/h (2 Bft) SW 225 12,5 C 12,7 km/h (3 Bft)
06.06.2015 21:55 15,1 C 14,8 C 84 % 1028,1 hPa 0,0 mm 10,1 km/h (2 Bft) W-SW 247 12,4 C 13,2 km/h (3 Bft)
06.06.2015 22:00 15,0 C 14,7 C 85 % 1028,1 hPa 0,0 mm 6,5 km/h (2 Bft) O-NO 67 12,5 C 0,0 km/h (0 Bft)
06.06.2015 22:05 14,9 C 14,7 C 86 % 1028,1 hPa 0,0 mm 2,8 km/h (1 Bft) N-NO 22 12,6 C 0,0 km/h (0 Bft)
06.06.2015 22:10 14,8 C 14,6 C 86 % 1028,1 hPa 0,7 mm 0,8 km/h (0 Bft) W-SW 247 12,5 C 0,0 km/h (0 Bft)
06.06.2015 22:15 14,8 C 14,6 C 86 % 1027,8 hPa 0,0 mm 0,5 km/h (0 Bft) O-NO 67 12,5 C 0,0 km/h (0 Bft)
06.06.2015 22:20 14,7 C 14,5 C 86 % 1027,8 hPa 0,0 mm 0,8 km/h (0 Bft) N-NO 22 12,4 C 5,4 km/h (1 Bft)
06.06.2015 22:25 14,7 C 14,5 C 86 % 1027,8 hPa 0,0 mm 0,8 km/h (0 Bft) SO 135 12,4 C 0,0 km/h (0 Bft)
06.06.2015 22:30 14,7 C 14,5 C 86 % 1027,8 hPa 0,0 mm 1,0 km/h (0 Bft) O-SO 112 12,4 C 0,0 km/h (0 Bft)
06.06.2015 22:35 14,6 C 14,5 C 87 % 1027,7 hPa 0,0 mm 0,5 km/h (0 Bft) NO 45 12,5 C 4,1 km/h (1 Bft)
06.06.2015 22:40 14,7 C 14,5 C 87 % 1027,7 hPa 0,0 mm 1,0 km/h (0 Bft) O-NO 67 12,6 C 0,0 km/h (0 Bft)
06.06.2015 22:45 14,6 C 14,5 C 87 % 1027,7 hPa 0,0 mm 1,0 km/h (0 Bft) O-NO 67 12,5 C 0,0 km/h (0 Bft)
06.06.2015 22:50 14,6 C 14,4 C 87 % 1027,7 hPa 0,0 mm 0,3 km/h (0 Bft) O 90 12,5 C 0,0 km/h (0 Bft)
06.06.2015 22:55 14,6 C 14,4 C 88 % 1027,4 hPa 0,0 mm 1,3 km/h (1 Bft) NO 45 12,6 C 6,5 km/h (2 Bft)
06.06.2015 23:00 14,7 C 14,5 C 88 % 1027,4 hPa 0,0 mm 2,8 km/h (1 Bft) W 270 12,7 C 0,0 km/h (0 Bft)
06.06.2015 23:05 14,6 C 14,4 C 88 % 1027,4 hPa 0,0 mm 3,1 km/h (1 Bft) O-NO 67 12,6 C 8,5 km/h (2 Bft)
06.06.2015 23:10 14,7 C 14,5 C 87 % 1027,4 hPa 0,0 mm 3,9 km/h (1 Bft) SO 135 12,6 C 3,4 km/h (1 Bft)
06.06.2015 23:15 14,6 C 14,4 C 87 % 1027,5 hPa 0,0 mm 3,4 km/h (1 Bft) SO 135 12,5 C 0,0 km/h (0 Bft)
06.06.2015 23:20 14,4 C 14,2 C 87 % 1027,5 hPa 0,0 mm 1,0 km/h (0 Bft) S-SO 157 12,3 C 0,0 km/h (0 Bft)
06.06.2015 23:25 14,4 C 14,2 C 87 % 1027,5 hPa 0,0 mm 1,0 km/h (0 Bft) SO 135 12,3 C 0,0 km/h (0 Bft)
06.06.2015 23:30 14,3 C 14,1 C 87 % 1027,5 hPa 0,0 mm 1,3 km/h (1 Bft) W 270 12,2 C 4,7 km/h (1 Bft)
06.06.2015 23:35 14,3 C 14,1 C 87 % 1027,2 hPa 0,0 mm 1,6 km/h (1 Bft) W-SW 247 12,2 C 0,0 km/h (0 Bft)
06.06.2015 23:40 14,3 C 14,1 C 87 % 1027,2 hPa 0,0 mm 1,3 km/h (1 Bft) O-NO 67 12,2 C 0,0 km/h (0 Bft)
06.06.2015 23:45 14,2 C 14,1 C 87 % 1027,2 hPa 0,0 mm 0,3 km/h (0 Bft) NO 45 12,1 C 0,0 km/h (0 Bft)
06.06.2015 23:50 14,2 C 14,1 C 87 % 1027,2 hPa 0,0 mm 0,0 km/h (0 Bft) SW 225 12,1 C 0,0 km/h (0 Bft)
06.06.2015 23:55 14,2 C 14,1 C 87 % 1027,5 hPa 0,0 mm 0,5 km/h (0 Bft) S-SW 202 12,1 C 7,5 km/h (2 Bft)
_ Min-Zeit 23:55 23:55 13:20 02:15 - 23:50 - - 23:55 23:50
Minimum _ 14,2 C 14,1 C 45 % 1020,0 hPa - 0,0 km/h (0 Bft) - - 12,1 C 0,0 km/h (0 Bft)
_ Max-Zeit 14:10 10:10 23:05 21:50 20:40 21:50 - - 09:20 21:25
Maximum _ 28,9 C 33,1 C 88 % 1028,2 hPa 1,4 mm 10,6 km/h
SW (2 Bft)
- - 17,4 C 27,7 km/h
O-SO (4 Bft)
Durchschnitt _ 21,1 C 22,7 C 68 % 1023,7 hPa #5,5 mm 3,7 km/h (1 Bft) NW - 14,5 C 5,4 km/h (1 Bft)